www.pogodaiklimat.ru

Погода и климат >> Архив погоды >> Россия >> Якутия >> Среднеколымск


АРХИВ ПОГОДЫ в Среднеколымске

Время (UTC), дата Ветер
(напр.,м/с)
 
Видим.   Явления Облачность Т
(С)
Тd
(С)
f
(%)
Тe
(С)
Тes
(С)
Комфортность P
(гПа)
Po
(гПа)
Тmin
(С)
Tmax
(С)
R
(мм)
R24
(мм)
S
(см)
09 19.04 С 2 50 км 10/0
[Ac trans Ci fib]
-6.5 -15.4 49 -10 -10 1024.6 1020.6 -4.2 0.0
12 19.04 СВ 2 50 км 10/0
[Ci fib]
-9.4 -15.7 60 -14 -14 1024.9 1020.8
15 19.04 СВ 1 50 км 10/0
[Ci fib]
-13.7 -16.4 80 -16 -16 1024.8 1020.6
18 19.04 СВ 2 50 км 6/0
[Ci fib]
-12.9 -16.4 75 -18 -18 1023.9 1019.7
21 19.04 СВ 2 50 км 10/3 600 м
[Sc Ac trans Ci fib]
-10.1 -14.5 70 -15 -14 1023.1 1019.0 -15.1
00 20.04 СВ 3 50 км 10/3 1000 м
[Sc Ac trans Cs]
-6.4 -16.5 45 -11 -10 1022.0 1018.0
03 20.04 СВ 5 50 км 10/0
[Ac trans Cs]
-4.2 -15.0 43 -10 -8 1022.0 1018.0
06 20.04 СВ 4 50 км 5/0
[Ci fib]
-3.2 -16.2 36 -8 -7 1022.4 1018.4
09 20.04 СВ 2 50 км 3/0
[Ci fib]
-4.2 -15.0 43 -8 -8 1023.7 1019.7 -3.2
12 20.04 СВ 3 50 км ясно -9.0 -15.1 61 -15 -15 1024.3 1020.2
15 20.04 СВ 2 50 км 3/0
[Ci fib]
-12.0 -16.4 70 -17 -17 1024.8 1020.7
18 20.04 СВ 2 50 км 3/0
[Ci fib]
-14.3 -17.8 75 -19 -19 1024.8 1020.6
21 20.04 СВ 2 50 км 10/0
[Ci fib]
-10.2 -15.5 65 -15 -13 1024.5 1020.4 -14.3
00 21.04 В 3 50 км 10/0
[Ci fib]
-2.0 -12.0 46 -6 -2 1023.3 1019.3
03 21.04 ЮВ 4 50 км 10/0
[Ci fib]
+0.2 -6.9 59 -5 -1 1022.1 1018.1
06 21.04 В 4 50 км 10/0
[Ci fib]
+0.4 -10.7 43 -4 -2 1020.5 1016.5
09 21.04 СВ 3 50 км 10/0
[Ci fib]
-1.0 -11.8 44 -5 -5 1019.8 1015.8 +0.9
12 21.04 В 2 50 км 8/0
[Ci fib]
-4.6 -13.3 51 -8 -8 1019.0 1015.0
15 21.04 В 2 50 км 4/0
[Ci fib]
-6.1 -14.1 53 -10 -10 1017.5 1013.5
18 21.04 В 2 50 км 8/0
[Ci fib]
-6.9 -13.7 58 -11 -11 1016.0 1012.0
21 21.04 В 3 50 км 6/0
[Ci fib]
-3.3 -13.3 46 -8 -6 1014.8 1010.8 -6.9
00 22.04 В 3 50 км 4/0
[Ci fib]
+2.6 -7.6 47 -1 +4 1013.2 1009.3
03 22.04 ЮВ 4 50 км 8/0
[Ci fib]
+4.6 -6.2 45 +1 +5 1011.8 1007.9
06 22.04 В 3 50 км 10/1 600 м
[Sc Ac trans Ci fib]
+5.0 -5.6 46 +2 +3 1010.8 1006.9
09 22.04 В 2 50 км 10/4 600 м
[Sc Ac trans Ci fib]
+4.6 -4.2 53 +3 +3 1010.5 1006.6 +5.7
12 22.04 ЮВ 2 50 км 10/3 1000 м
[Sc Ac trans Ci fib]
+2.4 -4.3 61 -0 -0 1010.5 1006.6
15 22.04 В 2 50 км 10/4 1000 м
[Sc Ac trans Ci fib]
+1.4 -4.1 67 -2 -2 1010.4 1006.5
18 22.04 ЮВ 2 50 км 10/0
[Ac trans Ci fib]
+0.2 -4.3 72 -3 -3 1010.4 1006.5
21 22.04 ЮВ 2 50 км 10/0
[Ac trans Ci fib]
+2.2 -4.2 63 -1 +1 1010.2 1006.3 -0.5
00 23.04 Ю 3 50 км 10/0
[Ac trans Cs]
+6.0 -3.3 51 +3 +8 1010.0 1006.1
03 23.04 ЮВ 4 50 км 10/0
[Ac trans Cs]
+6.6 -4.3 46 +4 +7 1009.5 1005.6
06 23.04 ЮЗ 3 50 км 10/0
[Ac trans Ci fib]
+7.5 -5.7 39 +5 +7 1009.4 1005.6
09 23.04 Ю 1 50 км 10/0
[Ac trans Ci fib]
+5.7 -4.9 46 +5 +5 1010.0 1006.1 +7.9
12 23.04 ЮВ 2 50 км 10/0
[Ac trans Ci fib]
+1.9 -4.6 62 -1 -1 1010.2 1006.3
15 23.04 ЮВ 2 50 км 10/0
[Ci fib]
+0.9 -5.1 64 -2 -2 1010.2 1006.3
18 23.04 ЮВ 2 50 км 10/0
[Ci fib]
-0.3 -4.8 72 -4 -4 1010.4 1006.5
21 23.04 ЮВ 1 50 км 10/0
[Ac trans Ci fib]
+2.8 -5.2 56 +2 +4 1010.1 1006.2 -0.9
00 24.04 Ю 2 50 км 10/0
[Ac trans Cs]
+4.9 -4.9 49 +3 +6 1010.2 1006.3
03 24.04 Ю 3 50 км 10/0
[Ac trans Cs]
+5.4 -5.8 44 +3 +6 1009.9 1006.0
06 24.04 Ю 2 50 км 10/1 1000 м
[Cu hum Ac trans Cs]
+6.1 -5.1 44 +4 +6 1009.8 1005.9
09 24.04 Ю 2 50 км 10/3 1000 м
[Sc Ac trans Cs]
+4.8 -2.8 58 +3 +3 1010.2 1006.3 +6.5
12 24.04 Ю 1 50 км 10/6 1000 м
[Cb cap Ci fib]
+1.7 -2.0 76 0 0 1010.6 1006.7
15 24.04 Ю 2 50 км 10/6 1000 м
[Cb cap Ci fib]
-0.7 -3.5 81 -4 -4 1010.4 1006.5
18 24.04 Ю 2 50 км 10/4 1000 м
[Cb cap Ci fib]
-2.7 -4.3 89 -7 -7 1010.9 1006.9
21 24.04 ЮЗ 1 50 км 10/8 300 м
[St Ci fib]
-0.7 -2.2 90 -3 -2 1010.9 1007.0 -3.4
00 25.04 СВ 2 50 км 10/6 300 м
[Sc Ci fib]
+3.8 -1.1 70 +1 +4 1010.8 1006.9
03 25.04 ЮВ 2 50 км 10/5 600 м
[Sc Ci fib]
+5.8 -4.0 49 +4 +7 1010.0 1006.1
06 25.04 С 1 50 км 8/4 600 м
[Cu hum Ci fib]
+6.7 -4.5 45 +6 +8 1009.7 1005.8
09 25.04 В 2 50 км 4/4 600 м
[Cu hum]
+4.7 -4.4 52 +3 +3 1009.6 1005.7 +7.2
12 25.04 В 2 50 км 1/1 1000 м
[Sc]
+1.8 -4.7 62 -1 -1 1009.7 1005.8
15 25.04 В 2 50 км 5/0
[Ci fib]
-1.8 -6.3 71 -5 -5 1009.1 1005.2
18 25.04 В 2 50 км 5/0
[Ci fib]
-3.8 -6.7 80 -8 -8 1008.8 1004.8
21 25.04 В 2 50 км 5/0
[Ac trans Ci fib]
+2.1 -5.1 59 -1 +2 1008.3 1004.4 -4.9
00 26.04 В 2 50 км 8/3 1000 м
[Cu hum Ac trans Ci fib]
+5.2 -4.9 48 +3 +7 1007.3 1003.5
03 26.04 СВ 4 50 км 8/5 600 м
[Cb cap Ci fib]
+6.1 -3.9 49 +3 +5 1005.4 1001.6

 

Местоположение метеостанции Среднеколымск (Якутия, Россия): широта 67.45 долгота 153.70 высота над уровнем моря 21 м.

В архиве по умолчанию представлена погода в Среднеколымске за последнюю неделю. Архивные данные за месяц целиком и за предыдущие месяцы, начиная с января 2011 года, Вы можете получить, выбрав интересующий диапазон дат из раскрывающегося списка и нажав кнопку "Ввод!".


*Определитесь, кто Вы:
робот инопланетянин человек

Внимание! Время в таблицах - всемирное. Для получения местного времени необходимо прибавить поправку, которая равна 11 ч.

Смотрите также архив погоды в соседних городах и на ближайших метеорологических станциях:

Погода в Андрюшкино (Якутия, Россия) (194 км)
Погода в Зырянке (Якутия, Россия) (228 км)
Погода в Колымской (Якутия, Россия) (248 км)
Погода в Коркодоне (Магаданская область, Россия) (300 км)
Погода в Константиновской (Чукотка, Россия) (320 км)
Погода в Белой Горе (Якутия, Россия) (335 км)
Погода в Анюйске (Чукотка, Россия) (341 км)
Погода в Черском (Якутия, Россия) (346 км)
Погода в Омолоне (Чукотка, Россия) (391 км)
Погода в Балыгычане (Магаданская область, Россия) (394 км)

Пояснения к столбцам:

Ветер - указаны скорость ветра в м/с - средняя за 10 мин, порывы в срок и между сроками (в фигурных скобках) и направление, откуда дует ветер: С - северный, СВ - северо-восточный, В - восточный, ЮВ - юго-восточный, Ю - южный, ЮЗ - юго-западный, З - западный, СЗ - северо-западный.
Видимость - горизонтальная дальность видимости в метрах или километрах. При видимости от 1 до 10 км при отсутствии осадков обычно наблюдается дымка, при ухудшении видимости до 1 км и менее - туман. В сухую погоду видимость может ухудшаться дымом, пылью или мглою.
Явления - указаны атмосферные явления, наблюдавшиеся в срок или в последний час перед сроком; фигурными скобками обозначены явления, наблюдавшиеся между сроками (за 1-3 часа до срока); квадратными скобками обозначены град или гололедные отложения с указанием их диаметра в мм.
Облачность - указаны через наклонную черту общая и нижняя облачность в баллах и высота нижней границы облаков в метрах; квадратными скобками обозначены формы облаков: Ci - перистые, Cs - перисто-слоистые, Cc - перисто-кучевые, Ac - высококучевые, As - высокослоистые, Sc - слоисто-кучевые, Ns - слоисто-дождевые, Cu - кучевые, Cb - кучево-дождевые. Подробнее классификацию облаков см. в Атласе облаков (PDF).
T - Температура воздуха - температура, измеренная на высоте 2 м над землей.
Td - Температура точки росы - температура, при понижении до которой содержащийся в воздухе водяной пар достигнет насыщения.
f - Относительная влажность воздуха - влажноcть воздуха, измеренная на высоте 2 м над землей.
Te - Эффективная температура - температура, которую ощущает одетый по сезону человек в тени. Характеристика душности погоды. При расчете учитывается влияние влажности воздуха и скорости ветра на теплоощущения человека.
Tes - Эффективная температура на солнце - температура, которую ощущает человек, с поправкой на солнечный нагрев. Характеристика знойности погоды. Зависит от высоты солнца над горизонтом, облачности и скорости ветра. Ночью, в пасмурную погоду, а также при ветре 12 м/с и более поправка равна нулю.
P - Атмосферное давление - приведенное к уровню моря атмосферное давление.
Po - Атмосферное давление - измеренное на уровне метеостанции атмосферное давление.
Tmin - Минимальная температура - минимум температуры воздуха на высоте 2 м над землей.
Tmax - Максимальная температура - максимум температуры воздуха на высоте 2 м над землей.
R - Количество осадков - Количество выпавших осадков за период времени, мм. При наведении курсора мыши на число - период времени, за который выпало указанное количество осадков.
R24 - Количество осадков - Количество выпавших осадков за 24 часа, мм.
S - Снежный покров - Высота снежного покрова, см. При наведении курсора мыши на число - состояние снежного покрова и степень покрытия местности в баллах.